Time,TemperatureF,DewpointF,PressureIn,WindDirection,WindDirectionDegrees,WindSpeedMPH,WindSpeedGustMPH,Humidity,HourlyPrecipIn,Conditions,Clouds,dailyrainin,SoftwareType,DateUTC
2013-03-26 00:00:00,28.5,23.4,30.36,WNW,292,5.0,9.0,81,0.00,,,0.00,VWS V14.00,2013-03-26 05:00:00,
2013-03-26 00:05:00,28.3,23.2,30.36,WNW,292,5.0,9.0,81,0.00,,,0.00,VWS V14.00,2013-03-26 05:05:00,
2013-03-26 00:10:00,28.1,23.0,30.36,WNW,292,5.0,8.0,81,0.00,,,0.00,VWS V14.00,2013-03-26 05:10:00,
2013-03-26 00:15:00,28.0,22.9,30.36,WNW,292,4.0,7.0,81,0.00,,,0.00,VWS V14.00,2013-03-26 05:15:00,
2013-03-26 00:25:00,27.7,22.9,30.36,WNW,292,5.0,8.0,82,0.00,,,0.00,VWS V14.00,2013-03-26 05:25:00,
2013-03-26 00:30:00,27.6,22.8,30.36,WNW,292,5.0,9.0,82,0.00,,,0.00,VWS V14.00,2013-03-26 05:30:00,
2013-03-26 00:40:00,27.3,22.5,30.36,WNW,292,4.0,7.0,82,0.00,,,0.00,VWS V14.00,2013-03-26 05:40:00,
2013-03-26 00:45:00,27.2,22.4,30.36,WNW,292,6.0,10.0,82,0.00,,,0.00,VWS V14.00,2013-03-26 05:45:00,
2013-03-26 01:10:00,26.7,22.0,30.37,WNW,292,5.0,9.0,82,0.00,,,0.00,VWS V14.00,2013-03-26 06:10:00,
2013-03-26 01:15:00,26.6,21.9,30.36,WNW,292,5.0,11.0,82,0.00,,,0.00,VWS V14.00,2013-03-26 06:15:00,
2013-03-26 01:25:00,26.4,21.7,30.37,WNW,292,4.0,8.0,82,0.00,,,0.00,VWS V14.00,2013-03-26 06:25:00,
2013-03-26 01:30:00,26.3,21.6,30.36,WNW,292,5.0,9.0,82,0.00,,,0.00,VWS V14.00,2013-03-26 06:30:00,
2013-03-26 01:35:00,26.3,21.6,30.36,WNW,292,6.0,9.0,82,0.00,,,0.00,VWS V14.00,2013-03-26 06:35:00,
2013-03-26 01:40:00,26.2,21.5,30.36,WNW,292,5.0,10.0,82,0.00,,,0.00,VWS V14.00,2013-03-26 06:40:00,
2013-03-26 01:45:00,26.2,21.5,30.37,WNW,292,6.0,11.0,82,0.00,,,0.00,VWS V14.00,2013-03-26 06:45:00,
2013-03-26 01:50:00,26.2,21.5,30.37,WNW,292,5.0,9.0,82,0.00,,,0.00,VWS V14.00,2013-03-26 06:50:00,
2013-03-26 01:55:00,26.2,21.5,30.36,WNW,292,6.0,11.0,82,0.00,,,0.00,VWS V14.00,2013-03-26 06:55:00,
2013-03-26 02:00:00,26.2,21.5,30.36,WNW,292,6.0,12.0,82,0.00,,,0.00,VWS V14.00,2013-03-26 07:00:00,
2013-03-26 02:05:00,26.3,21.6,30.36,WNW,292,7.0,11.0,82,0.00,,,0.00,VWS V14.00,2013-03-26 07:05:00,
2013-03-26 02:10:00,26.3,21.3,30.36,WNW,292,5.0,11.0,81,0.00,,,0.00,VWS V14.00,2013-03-26 07:10:00,
2013-03-26 02:15:00,26.2,21.2,30.36,WNW,292,7.0,11.0,81,0.00,,,0.00,VWS V14.00,2013-03-26 07:15:00,
2013-03-26 02:20:00,26.1,21.4,30.36,WNW,292,7.0,11.0,82,0.00,,,0.00,VWS V14.00,2013-03-26 07:20:00,
2013-03-26 02:25:00,26.1,21.1,30.37,WNW,292,7.0,12.0,81,0.00,,,0.00,VWS V14.00,2013-03-26 07:25:00,
2013-03-26 02:30:00,26.1,21.1,30.37,WNW,292,7.0,11.0,81,0.00,,,0.00,VWS V14.00,2013-03-26 07:30:00,
2013-03-26 02:35:00,26.0,21.0,30.36,WNW,292,6.0,12.0,81,0.00,,,0.00,VWS V14.00,2013-03-26 07:35:00,
2013-03-26 02:40:00,26.0,21.0,30.36,WNW,292,6.0,12.0,81,0.00,,,0.00,VWS V14.00,2013-03-26 07:40:00,
2013-03-26 02:45:00,25.8,20.8,30.36,WNW,292,5.0,10.0,81,0.00,,,0.00,VWS V14.00,2013-03-26 07:45:00,
2013-03-26 02:50:00,25.7,21.0,30.36,WNW,292,6.0,12.0,82,0.00,,,0.00,VWS V14.00,2013-03-26 07:50:00,
2013-03-26 02:55:00,25.6,20.9,30.36,WNW,292,6.0,11.0,82,0.00,,,0.00,VWS V14.00,2013-03-26 07:55:00,
2013-03-26 03:00:00,25.5,20.8,30.36,WNW,292,5.0,9.0,82,0.00,,,0.00,VWS V14.00,2013-03-26 08:00:00,
2013-03-26 03:05:00,25.4,20.7,30.36,WNW,292,6.0,10.0,82,0.00,,,0.00,VWS V14.00,2013-03-26 08:05:00,
2013-03-26 03:10:00,25.3,20.6,30.36,WNW,292,6.0,10.0,82,0.00,,,0.00,VWS V14.00,2013-03-26 08:10:00,
2013-03-26 03:15:00,25.3,20.6,30.36,WNW,292,6.0,11.0,82,0.00,,,0.00,VWS V14.00,2013-03-26 08:15:00,
2013-03-26 03:20:00,25.2,20.8,30.36,WNW,292,7.0,11.0,83,0.00,,,0.00,VWS V14.00,2013-03-26 08:20:00,
2013-03-26 03:25:00,25.2,20.8,30.36,WNW,292,7.0,12.0,83,0.00,,,0.00,VWS V14.00,2013-03-26 08:25:00,
2013-03-26 03:30:00,25.2,20.5,30.36,WNW,292,6.0,10.0,82,0.00,,,0.00,VWS V14.00,2013-03-26 08:30:00,
2013-03-26 03:35:00,25.1,20.7,30.36,WNW,292,6.0,11.0,83,0.00,,,0.00,VWS V14.00,2013-03-26 08:35:00,
2013-03-26 03:40:00,25.0,20.6,30.36,WNW,292,5.0,8.0,83,0.00,,,0.00,VWS V14.00,2013-03-26 08:40:00,
2013-03-26 03:45:00,24.8,20.4,30.36,WNW,292,6.0,10.0,83,0.00,,,0.00,VWS V14.00,2013-03-26 08:45:00,
2013-03-26 03:50:00,24.8,20.4,30.36,WNW,292,6.0,11.0,83,0.00,,,0.00,VWS V14.00,2013-03-26 08:50:00,
2013-03-26 03:55:00,24.8,20.7,30.36,WNW,292,7.0,10.0,84,0.00,,,0.00,VWS V14.00,2013-03-26 08:55:00,
2013-03-26 04:00:00,24.8,20.7,30.36,WNW,292,5.0,9.0,84,0.00,,,0.00,VWS V14.00,2013-03-26 09:00:00,
2013-03-26 04:05:00,24.7,20.6,30.36,WNW,292,6.0,10.0,84,0.00,,,0.00,VWS V14.00,2013-03-26 09:05:00,
2013-03-26 04:10:00,24.7,20.6,30.36,WNW,292,5.0,8.0,84,0.00,,,0.00,VWS V14.00,2013-03-26 09:10:00,
2013-03-26 04:15:00,24.7,20.6,30.36,WNW,292,6.0,12.0,84,0.00,,,0.00,VWS V14.00,2013-03-26 09:15:00,
2013-03-26 04:20:00,24.7,20.6,30.36,WNW,292,5.0,10.0,84,0.00,,,0.00,VWS V14.00,2013-03-26 09:20:00,
2013-03-26 04:25:00,24.6,20.5,30.36,WNW,292,5.0,9.0,84,0.00,,,0.00,VWS V14.00,2013-03-26 09:25:00,
2013-03-26 04:30:00,24.5,20.4,30.36,WNW,292,5.0,10.0,84,0.00,,,0.00,VWS V14.00,2013-03-26 09:30:00,
2013-03-26 04:35:00,24.4,20.3,30.37,WNW,292,5.0,10.0,84,0.00,,,0.00,VWS V14.00,2013-03-26 09:35:00,
2013-03-26 04:40:00,24.4,20.3,30.36,WNW,292,4.0,8.0,84,0.00,,,0.00,VWS V14.00,2013-03-26 09:40:00,
2013-03-26 04:45:00,24.2,20.1,30.37,WNW,292,4.0,7.0,84,0.00,,,0.00,VWS V14.00,2013-03-26 09:45:00,
2013-03-26 04:50:00,24.1,20.0,30.37,WNW,292,4.0,8.0,84,0.00,,,0.00,VWS V14.00,2013-03-26 09:50:00,
2013-03-26 04:55:00,24.0,19.9,30.36,WNW,292,4.0,7.0,84,0.00,,,0.00,VWS V14.00,2013-03-26 09:55:00,
2013-03-26 05:00:00,23.8,20.0,30.36,WNW,292,4.0,6.0,85,0.00,,,0.00,VWS V14.00,2013-03-26 10:00:00,
2013-03-26 05:05:00,23.6,19.5,30.37,WNW,292,3.0,7.0,84,0.00,,,0.00,VWS V14.00,2013-03-26 10:05:00,
2013-03-26 05:10:00,23.5,19.7,30.36,WNW,292,4.0,9.0,85,0.00,,,0.00,VWS V14.00,2013-03-26 10:10:00,
2013-03-26 05:15:00,23.4,19.6,30.37,WNW,292,4.0,7.0,85,0.00,,,0.00,VWS V14.00,2013-03-26 10:15:00,
2013-03-26 05:20:00,23.3,19.5,30.37,WNW,292,3.0,6.0,85,0.00,,,0.00,VWS V14.00,2013-03-26 10:20:00,
2013-03-26 05:25:00,23.1,19.3,30.37,WNW,292,3.0,6.0,85,0.00,,,0.00,VWS V14.00,2013-03-26 10:25:00,
2013-03-26 05:30:00,23.0,19.5,30.36,WNW,292,2.0,4.0,86,0.00,,,0.00,VWS V14.00,2013-03-26 10:30:00,
2013-03-26 05:35:00,22.8,19.2,30.37,WNW,292,3.0,7.0,86,0.00,,,0.00,VWS V14.00,2013-03-26 10:35:00,
2013-03-26 05:40:00,22.7,19.1,30.37,West,270,2.0,5.0,86,0.00,,,0.00,VWS V14.00,2013-03-26 10:40:00,
2013-03-26 05:45:00,22.5,19.0,30.37,West,270,3.0,6.0,86,0.00,,,0.00,VWS V14.00,2013-03-26 10:45:00,
2013-03-26 05:50:00,22.3,18.8,30.37,West,270,3.0,6.0,86,0.00,,,0.00,VWS V14.00,2013-03-26 10:50:00,
2013-03-26 05:55:00,22.1,18.6,30.37,West,270,3.0,5.0,86,0.00,,,0.00,VWS V14.00,2013-03-26 10:55:00,
2013-03-26 06:00:00,21.9,18.4,30.37,West,270,2.0,4.0,86,0.00,,,0.00,VWS V14.00,2013-03-26 11:00:00,
2013-03-26 06:05:00,21.6,18.1,30.37,West,270,4.0,6.0,86,0.00,,,0.00,VWS V14.00,2013-03-26 11:05:00,
2013-03-26 06:10:00,21.5,18.2,30.37,West,270,3.0,5.0,87,0.00,,,0.00,VWS V14.00,2013-03-26 11:10:00,
2013-03-26 06:15:00,21.3,18.0,30.38,West,270,3.0,6.0,87,0.00,,,0.00,VWS V14.00,2013-03-26 11:15:00,
2013-03-26 06:20:00,21.2,17.9,30.38,West,270,2.0,5.0,87,0.00,,,0.00,VWS V14.00,2013-03-26 11:20:00,
2013-03-26 06:25:00,21.0,17.8,30.38,West,270,2.0,4.0,87,0.00,,,0.00,VWS V14.00,2013-03-26 11:25:00,
2013-03-26 06:30:00,20.9,17.6,30.38,West,270,2.0,4.0,87,0.00,,,0.00,VWS V14.00,2013-03-26 11:30:00,
2013-03-26 06:35:00,20.8,17.8,30.38,West,270,2.0,5.0,88,0.00,,,0.00,VWS V14.00,2013-03-26 11:35:00,
2013-03-26 06:40:00,20.6,17.6,30.38,West,270,2.0,5.0,88,0.00,,,0.00,VWS V14.00,2013-03-26 11:40:00,
2013-03-26 06:45:00,20.6,17.6,30.38,WNW,292,2.0,4.0,88,0.00,,,0.00,VWS V14.00,2013-03-26 11:45:00,
2013-03-26 06:50:00,20.5,17.8,30.39,West,270,3.0,5.0,89,0.00,,,0.00,VWS V14.00,2013-03-26 11:50:00,
2013-03-26 06:55:00,20.5,17.8,30.38,West,270,4.0,6.0,89,0.00,,,0.00,VWS V14.00,2013-03-26 11:55:00,
2013-03-26 07:00:00,20.5,17.8,30.39,West,270,3.0,4.0,89,0.00,,,0.00,VWS V14.00,2013-03-26 12:00:00,
2013-03-26 07:05:00,20.5,17.8,30.39,West,270,2.0,5.0,89,0.00,,,0.00,VWS V14.00,2013-03-26 12:05:00,
2013-03-26 07:10:00,20.5,17.8,30.39,West,270,4.0,6.0,89,0.00,,,0.00,VWS V14.00,2013-03-26 12:10:00,
2013-03-26 07:15:00,20.6,18.1,30.39,West,270,3.0,6.0,90,0.00,,,0.00,VWS V14.00,2013-03-26 12:15:00,
2013-03-26 07:20:00,20.6,17.9,30.40,West,270,3.0,5.0,89,0.00,,,0.00,VWS V14.00,2013-03-26 12:20:00,
2013-03-26 07:25:00,20.6,18.1,30.40,West,270,3.0,6.0,90,0.00,,,0.00,VWS V14.00,2013-03-26 12:25:00,
2013-03-26 07:30:00,20.7,18.2,30.40,West,270,3.0,6.0,90,0.00,,,0.00,VWS V14.00,2013-03-26 12:30:00,
2013-03-26 07:35:00,20.8,18.3,30.40,West,270,3.0,5.0,90,0.00,,,0.00,VWS V14.00,2013-03-26 12:35:00,
2013-03-26 07:40:00,20.9,18.4,30.40,West,270,2.0,4.0,90,0.00,,,0.00,VWS V14.00,2013-03-26 12:40:00,
2013-03-26 07:45:00,21.1,18.6,30.40,West,270,2.0,4.0,90,0.00,,,0.00,VWS V14.00,2013-03-26 12:45:00,
2013-03-26 07:50:00,21.3,18.8,30.41,West,270,2.0,5.0,90,0.00,,,0.00,VWS V14.00,2013-03-26 12:50:00,
2013-03-26 07:55:00,21.5,19.0,30.41,West,270,2.0,5.0,90,0.00,,,0.00,VWS V14.00,2013-03-26 12:55:00,
2013-03-26 08:00:00,21.7,19.2,30.41,West,270,2.0,5.0,90,0.00,,,0.00,VWS V14.00,2013-03-26 13:00:00,
2013-03-26 08:05:00,22.0,19.5,30.41,WNW,292,2.0,5.0,90,0.00,,,0.00,VWS V14.00,2013-03-26 13:05:00,
2013-03-26 08:10:00,22.3,19.8,30.42,West,270,3.0,7.0,90,0.00,,,0.00,VWS V14.00,2013-03-26 13:10:00,
2013-03-26 08:15:00,22.6,20.1,30.42,West,270,2.0,4.0,90,0.00,,,0.00,VWS V14.00,2013-03-26 13:15:00,
2013-03-26 08:20:00,23.1,20.6,30.42,West,270,3.0,5.0,90,0.00,,,0.00,VWS V14.00,2013-03-26 13:20:00,
2013-03-26 08:25:00,23.5,20.7,30.42,West,270,1.0,4.0,89,0.00,,,0.00,VWS V14.00,2013-03-26 13:25:00,
2013-03-26 08:30:00,23.9,20.9,30.42,West,270,3.0,7.0,88,0.00,,,0.00,VWS V14.00,2013-03-26 13:30:00,
2013-03-26 08:35:00,24.3,21.3,30.42,WNW,292,3.0,5.0,88,0.00,,,0.00,VWS V14.00,2013-03-26 13:35:00,
2013-03-26 08:40:00,24.7,21.7,30.43,West,270,2.0,4.0,88,0.00,,,0.00,VWS V14.00,2013-03-26 13:40:00,
2013-03-26 08:45:00,25.3,21.7,30.43,NW,315,2.0,6.0,86,0.00,,,0.00,VWS V14.00,2013-03-26 13:45:00,
2013-03-26 08:50:00,25.9,22.3,30.43,West,270,2.0,5.0,86,0.00,,,0.00,VWS V14.00,2013-03-26 13:50:00,
2013-03-26 08:55:00,26.5,22.3,30.43,West,270,1.0,6.0,84,0.00,,,0.00,VWS V14.00,2013-03-26 13:55:00,
2013-03-26 09:00:00,27.0,22.5,30.43,WNW,292,3.0,7.0,83,0.00,,,0.00,VWS V14.00,2013-03-26 14:00:00,
2013-03-26 09:05:00,27.5,22.7,30.44,West,270,2.0,4.0,82,0.00,,,0.00,VWS V14.00,2013-03-26 14:05:00,
2013-03-26 09:10:00,28.0,22.6,30.44,West,270,3.0,5.0,80,0.00,,,0.00,VWS V14.00,2013-03-26 14:10:00,
2013-03-26 09:15:00,28.5,23.1,30.44,West,270,3.0,6.0,80,0.00,,,0.00,VWS V14.00,2013-03-26 14:15:00,
2013-03-26 09:20:00,29.0,23.3,30.44,WNW,292,3.0,7.0,79,0.00,,,0.00,VWS V14.00,2013-03-26 14:20:00,
2013-03-26 09:25:00,29.5,23.5,30.44,NNW,338,2.0,5.0,78,0.00,,,0.00,VWS V14.00,2013-03-26 14:25:00,
2013-03-26 09:30:00,30.0,24.0,30.44,WNW,292,3.0,7.0,78,0.00,,,0.00,VWS V14.00,2013-03-26 14:30:00,
2013-03-26 09:35:00,30.4,23.8,30.44,WNW,292,5.0,8.0,76,0.00,,,0.00,VWS V14.00,2013-03-26 14:35:00,
2013-03-26 09:40:00,30.7,24.0,30.44,WNW,292,5.0,8.0,76,0.00,,,0.00,VWS V14.00,2013-03-26 14:40:00,
2013-03-26 09:45:00,31.2,24.2,30.44,WNW,292,4.0,7.0,75,0.00,,,0.00,VWS V14.00,2013-03-26 14:45:00,
2013-03-26 09:50:00,31.7,24.7,30.44,WNW,292,3.0,7.0,75,0.00,,,0.00,VWS V14.00,2013-03-26 14:50:00,
2013-03-26 09:55:00,31.9,23.9,30.44,WNW,292,6.0,9.0,72,0.00,,,0.00,VWS V14.00,2013-03-26 14:55:00,
2013-03-26 10:00:00,32.0,24.3,30.44,NW,315,5.0,9.0,73,0.01,,,0.01,VWS V14.00,2013-03-26 15:00:00,
2013-03-26 10:05:00,32.3,24.6,30.44,WNW,292,4.0,7.0,73,0.01,,,0.01,VWS V14.00,2013-03-26 15:05:00,
2013-03-26 10:10:00,32.8,25.1,30.44,WNW,292,4.0,9.0,73,0.01,,,0.01,VWS V14.00,2013-03-26 15:10:00,
2013-03-26 10:15:00,33.5,25.1,30.44,WNW,292,3.0,7.0,71,0.01,,,0.01,VWS V14.00,2013-03-26 15:15:00,
2013-03-26 10:20:00,33.5,25.1,30.44,WNW,292,3.0,7.0,71,0.01,,,0.01,VWS V14.00,2013-03-26 15:20:00,
2013-03-26 10:25:00,33.9,25.2,30.44,NW,315,2.0,6.0,70,0.01,,,0.01,VWS V14.00,2013-03-26 15:25:00,
2013-03-26 10:30:00,34.3,25.2,30.44,WNW,292,3.0,6.0,69,0.01,,,0.01,VWS V14.00,2013-03-26 15:30:00,
2013-03-26 10:35:00,34.6,25.1,30.44,WNW,292,4.0,7.0,68,0.01,,,0.01,VWS V14.00,2013-03-26 15:35:00,
2013-03-26 10:40:00,35.0,25.9,30.44,West,270,3.0,6.0,69,0.01,,,0.01,VWS V14.00,2013-03-26 15:40:00,
2013-03-26 10:45:00,35.4,26.3,30.44,WNW,292,2.0,4.0,69,0.01,,,0.01,VWS V14.00,2013-03-26 15:45:00,
2013-03-26 10:50:00,35.8,25.2,30.44,NW,315,2.0,5.0,65,0.01,,,0.01,VWS V14.00,2013-03-26 15:50:00,
2013-03-26 10:55:00,36.0,25.4,30.44,WNW,292,3.0,6.0,65,0.01,,,0.01,VWS V14.00,2013-03-26 15:55:00,
2013-03-26 11:00:00,36.1,25.5,30.45,NNW,338,3.0,5.0,65,0.01,,,0.01,VWS V14.00,2013-03-26 16:00:00,
2013-03-26 11:05:00,36.3,25.3,30.45,NW,315,4.0,7.0,64,0.00,,,0.01,VWS V14.00,2013-03-26 16:05:00,
2013-03-26 11:10:00,36.2,25.2,30.45,NW,315,3.0,5.0,64,0.00,,,0.01,VWS V14.00,2013-03-26 16:10:00,
2013-03-26 11:15:00,36.4,25.8,30.45,North,0,3.0,6.0,65,0.00,,,0.01,VWS V14.00,2013-03-26 16:15:00,
2013-03-26 11:20:00,36.9,26.2,30.45,NW,315,2.0,6.0,65,0.00,,,0.01,VWS V14.00,2013-03-26 16:20:00,
2013-03-26 11:25:00,37.3,26.3,30.45,WSW,248,2.0,6.0,64,0.00,,,0.01,VWS V14.00,2013-03-26 16:25:00,
2013-03-26 11:30:00,37.5,26.5,30.45,WSW,248,0.0,1.0,64,0.00,,,0.01,VWS V14.00,2013-03-26 16:30:00,
2013-03-26 11:35:00,37.3,26.3,30.45,WSW,248,2.0,6.0,64,0.00,,,0.01,VWS V14.00,2013-03-26 16:35:00,
2013-03-26 11:40:00,37.6,26.2,30.45,West,270,2.0,5.0,63,0.00,,,0.01,VWS V14.00,2013-03-26 16:40:00,
2013-03-26 11:45:00,38.0,25.8,30.45,West,270,3.0,5.0,61,0.00,,,0.01,VWS V14.00,2013-03-26 16:45:00,
2013-03-26 11:50:00,38.2,25.1,30.45,West,270,2.0,5.0,59,0.00,,,0.01,VWS V14.00,2013-03-26 16:50:00,
2013-03-26 11:55:00,37.3,25.9,30.44,WSW,248,2.0,7.0,63,0.00,,,0.01,VWS V14.00,2013-03-26 16:55:00,
2013-03-26 12:00:00,37.2,26.5,30.44,SW,225,2.0,7.0,65,0.00,,,0.01,VWS V14.00,2013-03-26 17:00:00,
2013-03-26 12:05:00,37.8,25.6,30.44,West,270,4.0,6.0,61,0.00,,,0.01,VWS V14.00,2013-03-26 17:05:00,
2013-03-26 12:10:00,38.2,26.3,30.44,West,270,3.0,7.0,62,0.00,,,0.01,VWS V14.00,2013-03-26 17:10:00,
2013-03-26 12:15:00,38.5,25.4,30.44,WSW,248,2.0,6.0,59,0.00,,,0.01,VWS V14.00,2013-03-26 17:15:00,
2013-03-26 12:20:00,38.9,25.8,30.44,West,270,3.0,7.0,59,0.00,,,0.01,VWS V14.00,2013-03-26 17:20:00,
2013-03-26 12:25:00,39.3,25.8,30.44,WNW,292,2.0,7.0,58,0.00,,,0.01,VWS V14.00,2013-03-26 17:25:00,
2013-03-26 12:30:00,39.4,25.9,30.43,WNW,292,4.0,7.0,58,0.00,,,0.01,VWS V14.00,2013-03-26 17:30:00,
2013-03-26 12:35:00,39.3,25.4,30.44,West,270,3.0,6.0,57,0.00,,,0.01,VWS V14.00,2013-03-26 17:35:00,
2013-03-26 12:40:00,39.3,25.4,30.44,West,270,4.0,7.0,57,0.00,,,0.01,VWS V14.00,2013-03-26 17:40:00,
2013-03-26 12:45:00,38.8,25.3,30.44,WNW,292,4.0,7.0,58,0.00,,,0.01,VWS V14.00,2013-03-26 17:45:00,
2013-03-26 12:50:00,38.7,26.4,30.44,WSW,248,2.0,6.0,61,0.00,,,0.01,VWS V14.00,2013-03-26 17:50:00,
2013-03-26 12:55:00,39.0,25.1,30.44,WNW,292,2.0,8.0,57,0.00,,,0.01,VWS V14.00,2013-03-26 17:55:00,
2013-03-26 13:00:00,38.7,25.6,30.43,West,270,5.0,10.0,59,0.00,,,0.01,VWS V14.00,2013-03-26 18:00:00,
2013-03-26 13:05:00,38.4,26.1,30.43,West,270,4.0,8.0,61,0.00,,,0.01,VWS V14.00,2013-03-26 18:05:00,
2013-03-26 13:10:00,38.3,25.2,30.43,WNW,292,1.0,6.0,59,0.00,,,0.01,VWS V14.00,2013-03-26 18:10:00,
2013-03-26 13:15:00,38.6,24.3,30.43,WNW,292,4.0,8.0,56,0.00,,,0.01,VWS V14.00,2013-03-26 18:15:00,
2013-03-26 13:20:00,38.7,25.2,30.43,WNW,292,3.0,7.0,58,0.00,,,0.01,VWS V14.00,2013-03-26 18:20:00,
2013-03-26 13:25:00,38.9,26.6,30.43,WSW,248,6.0,11.0,61,0.00,,,0.01,VWS V14.00,2013-03-26 18:25:00,
2013-03-26 13:30:00,39.4,25.5,30.42,West,270,3.0,10.0,57,0.00,,,0.01,VWS V14.00,2013-03-26 18:30:00,
2013-03-26 13:35:00,39.8,25.4,30.43,WSW,248,5.0,11.0,56,0.00,,,0.01,VWS V14.00,2013-03-26 18:35:00,
2013-03-26 13:40:00,40.1,27.8,30.42,West,270,6.0,11.0,61,0.00,,,0.01,VWS V14.00,2013-03-26 18:40:00,
2013-03-26 13:45:00,40.5,27.3,30.42,West,270,5.0,14.0,59,0.00,,,0.01,VWS V14.00,2013-03-26 18:45:00,
2013-03-26 13:50:00,40.7,27.5,30.42,WSW,248,6.0,11.0,59,0.00,,,0.01,VWS V14.00,2013-03-26 18:50:00,
2013-03-26 13:55:00,40.8,26.8,30.42,West,270,5.0,12.0,57,0.00,,,0.01,VWS V14.00,2013-03-26 18:55:00,
2013-03-26 14:00:00,39.7,23.5,30.42,SW,225,5.0,12.0,52,0.00,,,0.01,VWS V14.00,2013-03-26 19:00:00,
2013-03-26 14:05:00,38.8,24.5,30.42,West,270,5.0,10.0,56,0.00,,,0.01,VWS V14.00,2013-03-26 19:05:00,
2013-03-26 14:10:00,38.4,25.7,30.42,West,270,4.0,8.0,60,0.00,,,0.01,VWS V14.00,2013-03-26 19:10:00,
2013-03-26 14:15:00,38.6,25.9,30.42,WSW,248,1.0,5.0,60,0.00,,,0.01,VWS V14.00,2013-03-26 19:15:00,
2013-03-26 14:20:00,39.3,25.8,30.42,NW,315,2.0,6.0,58,0.00,,,0.01,VWS V14.00,2013-03-26 19:20:00,
2013-03-26 14:25:00,39.4,23.7,30.42,South,180,4.0,11.0,53,0.00,,,0.01,VWS V14.00,2013-03-26 19:25:00,
2013-03-26 14:30:00,40.0,27.2,30.41,West,270,4.0,8.0,60,0.00,,,0.01,VWS V14.00,2013-03-26 19:30:00,
2013-03-26 14:35:00,40.2,26.6,30.42,WSW,248,4.0,11.0,58,0.00,,,0.01,VWS V14.00,2013-03-26 19:35:00,
2013-03-26 14:40:00,40.5,23.8,30.41,SW,225,5.0,13.0,51,0.00,,,0.01,VWS V14.00,2013-03-26 19:40:00,
2013-03-26 14:45:00,40.3,25.4,30.41,SW,225,6.0,10.0,55,0.00,,,0.01,VWS V14.00,2013-03-26 19:45:00,
2013-03-26 14:50:00,40.6,24.4,30.41,WSW,248,6.0,11.0,52,0.00,,,0.01,VWS V14.00,2013-03-26 19:50:00,
2013-03-26 14:55:00,40.4,23.7,30.41,SSW,202,4.0,9.0,51,0.00,,,0.01,VWS V14.00,2013-03-26 19:55:00,
2013-03-26 15:00:00,39.7,23.1,30.41,SSW,202,4.0,9.0,51,0.00,,,0.01,VWS V14.00,2013-03-26 20:00:00,
2013-03-26 15:05:00,39.3,23.6,30.41,WSW,248,4.0,11.0,53,0.00,,,0.01,VWS V14.00,2013-03-26 20:05:00,
2013-03-26 15:10:00,39.8,25.4,30.41,WSW,248,5.0,10.0,56,0.00,,,0.01,VWS V14.00,2013-03-26 20:10:00,
2013-03-26 15:15:00,40.0,24.3,30.40,WSW,248,5.0,9.0,53,0.00,,,0.01,VWS V14.00,2013-03-26 20:15:00,
2013-03-26 15:20:00,39.6,23.4,30.40,SW,225,3.0,7.0,52,0.00,,,0.01,VWS V14.00,2013-03-26 20:20:00,
2013-03-26 15:25:00,39.7,23.5,30.40,WSW,248,4.0,8.0,52,0.00,,,0.01,VWS V14.00,2013-03-26 20:25:00,
2013-03-26 15:30:00,39.3,23.6,30.40,SW,225,4.0,10.0,53,0.00,,,0.01,VWS V14.00,2013-03-26 20:30:00,
2013-03-26 15:35:00,38.8,23.6,30.40,South,180,4.0,9.0,54,0.00,,,0.01,VWS V14.00,2013-03-26 20:35:00,
2013-03-26 15:40:00,38.8,25.7,30.40,SW,225,4.0,8.0,59,0.00,,,0.01,VWS V14.00,2013-03-26 20:40:00,
2013-03-26 15:45:00,39.2,26.1,30.40,SW,225,3.0,9.0,59,0.00,,,0.01,VWS V14.00,2013-03-26 20:45:00,
2013-03-26 15:50:00,39.8,28.6,30.40,WSW,248,6.0,11.0,64,0.00,,,0.01,VWS V14.00,2013-03-26 20:50:00,
2013-03-26 15:55:00,40.5,25.2,30.40,West,270,3.0,9.0,54,0.00,,,0.01,VWS V14.00,2013-03-26 20:55:00,
2013-03-26 16:00:00,40.6,26.1,30.39,West,270,4.0,10.0,56,0.00,,,0.01,VWS V14.00,2013-03-26 21:00:00,
2013-03-26 16:10:00,40.2,24.5,30.39,West,270,2.0,7.0,53,0.00,,,0.01,VWS V14.00,2013-03-26 21:10:00,
2013-03-26 16:15:00,40.2,25.3,30.39,West,270,4.0,9.0,55,0.00,,,0.01,VWS V14.00,2013-03-26 21:15:00,
2013-03-26 16:20:00,40.3,26.3,30.39,WNW,292,3.0,8.0,57,0.00,,,0.01,VWS V14.00,2013-03-26 21:20:00,
2013-03-26 16:25:00,40.0,26.0,30.38,SSW,202,3.0,10.0,57,0.00,,,0.01,VWS V14.00,2013-03-26 21:25:00,
2013-03-26 16:30:00,40.1,24.4,30.38,WSW,248,3.0,8.0,53,0.00,,,0.01,VWS V14.00,2013-03-26 21:30:00,
2013-03-26 16:35:00,39.7,24.4,30.38,SW,225,3.0,7.0,54,0.00,,,0.01,VWS V14.00,2013-03-26 21:35:00,
2013-03-26 16:40:00,39.0,24.2,30.38,SSW,202,3.0,7.0,55,0.00,,,0.01,VWS V14.00,2013-03-26 21:40:00,
2013-03-26 16:45:00,38.5,25.0,30.37,South,180,4.0,7.0,58,0.00,,,0.01,VWS V14.00,2013-03-26 21:45:00,
2013-03-26 16:50:00,38.7,25.6,30.37,WSW,248,5.0,9.0,59,0.00,,,0.01,VWS V14.00,2013-03-26 21:50:00,
2013-03-26 16:55:00,38.7,23.9,30.37,SSW,202,1.0,3.0,55,0.00,,,0.01,VWS V14.00,2013-03-26 21:55:00,
2013-03-26 17:00:00,38.8,24.5,30.37,SW,225,1.0,6.0,56,0.00,,,0.01,VWS V14.00,2013-03-26 22:00:00,
2013-03-26 17:05:00,39.0,25.1,30.37,SW,225,2.0,6.0,57,0.00,,,0.01,VWS V14.00,2013-03-26 22:05:00,
2013-03-26 17:10:00,38.8,24.0,30.37,SW,225,2.0,5.0,55,0.00,,,0.01,VWS V14.00,2013-03-26 22:10:00,
2013-03-26 17:15:00,38.8,24.0,30.37,SSW,202,2.0,7.0,55,0.00,,,0.01,VWS V14.00,2013-03-26 22:15:00,
2013-03-26 17:26:00,38.8,24.0,30.37,SSW,202,2.0,7.0,55,0.00,,,0.01,VWS V14.00,2013-03-26 22:26:00,
2013-03-26 17:27:00,38.6,24.7,30.36,WSW,238,1.0,2.0,57,0.00,,,0.01,VWS V14.00,2013-03-26 22:27:00,
2013-03-26 17:32:00,38.6,25.5,30.36,West,269,4.0,6.0,59,0.00,,,0.01,VWS V14.00,2013-03-26 22:32:00,
2013-03-26 17:37:00,38.6,24.3,30.36,West,266,4.0,6.0,56,0.00,,,0.01,VWS V14.00,2013-03-26 22:37:00,
2013-03-26 17:42:00,38.7,25.2,30.36,WSW,256,0.0,5.0,58,0.00,,,0.01,VWS V14.00,2013-03-26 22:42:00,
2013-03-26 17:47:00,38.6,23.8,30.36,SSW,210,5.0,9.0,55,0.00,,,0.01,VWS V14.00,2013-03-26 22:47:00,
2013-03-26 17:52:00,37.8,23.1,30.36,SSW,193,2.0,7.0,55,0.00,,,0.01,VWS V14.00,2013-03-26 22:52:00,
2013-03-26 17:57:00,37.3,24.3,30.36,West,259,0.0,5.0,59,0.00,,,0.01,VWS V14.00,2013-03-26 22:57:00,
2013-03-26 18:02:00,37.3,23.9,30.36,SSW,207,2.0,5.0,58,0.00,,,0.01,VWS V14.00,2013-03-26 23:02:00,
2013-03-26 18:07:00,37.1,23.7,30.36,SW,222,1.0,4.0,58,0.00,,,0.01,VWS V14.00,2013-03-26 23:07:00,
2013-03-26 18:12:00,37.0,24.0,30.36,SSW,192,6.0,7.0,59,0.00,,,0.01,VWS V14.00,2013-03-26 23:12:00,
2013-03-26 18:17:00,36.7,23.3,30.36,South,191,5.0,7.0,58,0.00,,,0.01,VWS V14.00,2013-03-26 23:17:00,
2013-03-26 18:22:00,36.4,23.0,30.35,SSW,193,4.0,6.0,58,0.00,,,0.01,VWS V14.00,2013-03-26 23:22:00,
2013-03-26 18:27:00,36.2,23.7,30.36,WSW,237,4.0,6.0,60,0.00,,,0.01,VWS V14.00,2013-03-26 23:27:00,
2013-03-26 18:32:00,36.1,22.8,30.36,South,178,6.0,6.0,58,0.00,,,0.01,VWS V14.00,2013-03-26 23:32:00,
2013-03-26 18:37:00,36.0,23.9,30.36,WSW,239,3.0,5.0,61,0.00,,,0.01,VWS V14.00,2013-03-26 23:37:00,
2013-03-26 18:42:00,36.0,23.9,30.36,SSW,209,0.0,1.0,61,0.00,,,0.01,VWS V14.00,2013-03-26 23:42:00,
2013-03-26 18:47:00,35.9,23.0,30.36,South,183,5.0,6.0,59,0.00,,,0.01,VWS V14.00,2013-03-26 23:47:00,
2013-03-26 18:52:00,35.7,23.2,30.36,SSW,205,4.0,7.0,60,0.00,,,0.01,VWS V14.00,2013-03-26 23:52:00,
2013-03-26 18:57:00,35.4,22.9,30.36,South,170,4.0,6.0,60,0.00,,,0.01,VWS V14.00,2013-03-26 23:57:00,
2013-03-26 19:02:00,35.2,22.7,30.36,WSW,237,2.0,6.0,60,0.00,,,0.01,VWS V14.00,2013-03-27 00:02:00,
2013-03-26 19:07:00,35.1,23.0,30.36,SW,219,3.0,5.0,61,0.00,,,0.01,VWS V14.00,2013-03-27 00:07:00,
2013-03-26 19:12:00,34.9,22.4,30.36,SW,235,6.0,6.0,60,0.00,,,0.01,VWS V14.00,2013-03-27 00:12:00,
2013-03-26 19:17:00,34.7,22.2,30.37,SW,224,3.0,7.0,60,0.00,,,0.01,VWS V14.00,2013-03-27 00:17:00,
2013-03-26 19:22:00,34.6,22.5,30.37,SW,230,3.0,4.0,61,0.00,,,0.01,VWS V14.00,2013-03-27 00:22:00,
2013-03-26 19:27:00,34.4,22.7,30.36,SSW,198,1.0,3.0,62,0.00,,,0.01,VWS V14.00,2013-03-27 00:27:00,
2013-03-26 19:32:00,34.1,22.5,30.36,SSW,207,0.0,5.0,62,0.00,,,0.01,VWS V14.00,2013-03-27 00:32:00,
2013-03-26 19:37:00,33.8,22.2,30.36,SSW,199,4.0,4.0,62,0.00,,,0.01,VWS V14.00,2013-03-27 00:37:00,
2013-03-26 19:42:00,33.6,22.0,30.36,SSW,199,3.0,4.0,62,0.00,,,0.01,VWS V14.00,2013-03-27 00:42:00,
2013-03-26 19:47:00,33.4,21.8,30.35,SSW,200,3.0,4.0,62,0.00,,,0.01,VWS V14.00,2013-03-27 00:47:00,
2013-03-26 19:52:00,33.2,21.6,30.36,SSW,200,4.0,4.0,62,0.00,,,0.01,VWS V14.00,2013-03-27 00:52:00,
2013-03-26 19:57:00,33.0,21.4,30.36,SSW,200,3.0,4.0,62,0.00,,,0.01,VWS V14.00,2013-03-27 00:57:00,
2013-03-26 20:02:00,32.8,21.6,30.36,SSW,200,3.0,4.0,63,0.00,,,0.01,VWS V14.00,2013-03-27 01:02:00,
2013-03-26 20:07:00,32.6,21.4,30.36,SSW,200,1.0,4.0,63,0.00,,,0.01,VWS V14.00,2013-03-27 01:07:00,
2013-03-26 20:12:00,32.5,21.3,30.36,SSW,200,3.0,4.0,63,0.00,,,0.01,VWS V14.00,2013-03-27 01:12:00,
2013-03-26 20:17:00,32.5,21.7,30.36,SSW,200,2.0,4.0,64,0.00,,,0.01,VWS V14.00,2013-03-27 01:17:00,
2013-03-26 20:22:00,32.4,21.6,30.36,SSW,200,2.0,4.0,64,0.00,,,0.01,VWS V14.00,2013-03-27 01:22:00,
2013-03-26 20:27:00,32.2,21.8,30.36,SSW,199,2.0,4.0,65,0.00,,,0.01,VWS V14.00,2013-03-27 01:27:00,
2013-03-26 20:32:00,32.0,21.9,30.35,SSW,199,3.0,4.0,66,0.00,,,0.01,VWS V14.00,2013-03-27 01:32:00,
2013-03-26 20:37:00,31.8,22.1,30.35,SSW,199,2.0,4.0,67,0.00,,,0.01,VWS V14.00,2013-03-27 01:37:00,
2013-03-26 20:42:00,31.4,22.1,30.35,SSW,199,3.0,4.0,68,0.00,,,0.01,VWS V14.00,2013-03-27 01:42:00,
2013-03-26 20:47:00,31.0,22.0,30.35,SSW,199,3.0,4.0,69,0.00,,,0.01,VWS V14.00,2013-03-27 01:47:00,
2013-03-26 20:52:00,30.8,21.9,30.35,SSW,199,3.0,4.0,69,0.00,,,0.01,VWS V14.00,2013-03-27 01:52:00,
2013-03-26 20:57:00,30.7,21.8,30.36,SSW,199,1.0,4.0,69,0.00,,,0.01,VWS V14.00,2013-03-27 01:57:00,
2013-03-26 21:02:00,30.8,21.5,30.36,SSW,200,2.0,4.0,68,0.00,,,0.01,VWS V14.00,2013-03-27 02:02:00,
2013-03-26 21:07:00,30.9,21.6,30.36,SSW,200,4.0,4.0,68,0.00,,,0.01,VWS V14.00,2013-03-27 02:07:00,
2013-03-26 21:15:00,30.9,21.6,30.36,SSW,202,2.0,4.0,68,0.00,,,0.01,VWS V14.00,2013-03-27 02:15:00,
2013-03-26 21:20:00,30.9,21.6,30.36,SSW,202,2.0,0.0,68,0.00,,,0.01,VWS V14.00,2013-03-27 02:20:00,
2013-03-26 21:25:00,30.7,21.4,30.37,SSW,202,1.0,3.0,68,0.00,,,0.01,VWS V14.00,2013-03-27 02:25:00,
2013-03-26 21:30:00,30.4,21.8,30.37,SSW,202,1.0,2.0,70,0.00,,,0.01,VWS V14.00,2013-03-27 02:30:00,
2013-03-26 21:35:00,30.1,21.9,30.37,SSW,202,2.0,3.0,71,0.00,,,0.01,VWS V14.00,2013-03-27 02:35:00,
2013-03-26 21:40:00,29.8,21.2,30.37,SSW,202,2.0,4.0,70,0.00,,,0.01,VWS V14.00,2013-03-27 02:40:00,
2013-03-26 21:45:00,29.6,21.0,30.38,SSW,202,1.0,3.0,70,0.00,,,0.01,VWS V14.00,2013-03-27 02:45:00,
2013-03-26 21:50:00,29.4,20.8,30.38,SSW,202,1.0,3.0,70,0.00,,,0.01,VWS V14.00,2013-03-27 02:50:00,
2013-03-26 21:55:00,29.3,20.7,30.38,SSW,202,2.0,3.0,70,0.00,,,0.01,VWS V14.00,2013-03-27 02:55:00,
2013-03-26 22:00:00,29.2,21.0,30.38,SSW,202,2.0,3.0,71,0.00,,,0.01,VWS V14.00,2013-03-27 03:00:00,
2013-03-26 22:05:00,29.2,21.3,30.38,SSW,202,2.0,3.0,72,0.00,,,0.01,VWS V14.00,2013-03-27 03:05:00,
2013-03-26 22:10:00,29.0,21.8,30.38,SSW,202,1.0,2.0,74,0.00,,,0.01,VWS V14.00,2013-03-27 03:10:00,
2013-03-26 22:15:00,28.9,21.7,30.38,SSW,202,2.0,3.0,74,0.00,,,0.01,VWS V14.00,2013-03-27 03:15:00,
2013-03-26 22:20:00,28.7,21.8,30.38,SSW,202,2.0,4.0,75,0.00,,,0.01,VWS V14.00,2013-03-27 03:20:00,
2013-03-26 22:25:00,28.5,21.6,30.38,SSW,202,2.0,3.0,75,0.00,,,0.01,VWS V14.00,2013-03-27 03:25:00,
2013-03-26 22:30:00,28.1,21.5,30.38,SSW,202,0.0,2.0,76,0.00,,,0.01,VWS V14.00,2013-03-27 03:30:00,
2013-03-26 22:35:00,27.8,21.2,30.38,SSW,202,3.0,4.0,76,0.00,,,0.01,VWS V14.00,2013-03-27 03:35:00,
2013-03-26 22:40:00,27.6,21.4,30.38,SSW,202,2.0,4.0,77,0.00,,,0.01,VWS V14.00,2013-03-27 03:40:00,
2013-03-26 22:45:00,27.5,21.5,30.38,SSW,202,1.0,2.0,78,0.00,,,0.01,VWS V14.00,2013-03-27 03:45:00,
2013-03-26 22:50:00,27.4,21.8,30.38,SSW,202,1.0,2.0,79,0.00,,,0.01,VWS V14.00,2013-03-27 03:50:00,
2013-03-26 22:55:00,27.2,21.9,30.38,SSW,202,2.0,3.0,80,0.00,,,0.01,VWS V14.00,2013-03-27 03:55:00,
2013-03-26 23:00:00,27.1,22.1,30.38,SSW,202,1.0,3.0,81,0.00,,,0.01,VWS V14.00,2013-03-27 04:00:00,
2013-03-26 23:05:00,27.0,22.0,30.38,SSW,202,1.0,3.0,81,0.00,,,0.01,VWS V14.00,2013-03-27 04:05:00,
2013-03-26 23:10:00,26.7,21.7,30.38,SSW,202,0.0,2.0,81,0.00,,,0.01,VWS V14.00,2013-03-27 04:10:00,
2013-03-26 23:15:00,26.5,21.2,30.38,SSW,202,1.0,2.0,80,0.00,,,0.01,VWS V14.00,2013-03-27 04:15:00,
2013-03-26 23:20:00,26.3,21.3,30.38,SSW,202,0.0,1.0,81,0.00,,,0.01,VWS V14.00,2013-03-27 04:20:00,
2013-03-26 23:30:00,26.1,21.4,30.38,SSW,202,0.0,1.0,82,0.00,,,0.01,VWS V14.00,2013-03-27 04:30:00,
2013-03-26 23:35:00,25.9,21.2,30.38,SSW,202,1.0,3.0,82,0.00,,,0.01,VWS V14.00,2013-03-27 04:35:00,
2013-03-26 23:40:00,25.7,21.3,30.38,SSW,202,0.0,2.0,83,0.00,,,0.01,VWS V14.00,2013-03-27 04:40:00,
2013-03-26 23:45:00,25.5,21.1,30.38,SSW,202,0.0,0.0,83,0.00,,,0.01,VWS V14.00,2013-03-27 04:45:00,
2013-03-26 23:50:00,25.3,20.9,30.38,SSW,202,0.0,0.0,83,0.00,,,0.01,VWS V14.00,2013-03-27 04:50:00,